[[{"header":{"parameterUnit":"m.s-1","parameterCategory":1,"la1":30.2991,"la2":30.254,"lo1":-89.0895,"lo2":-89.0444,"dy":0.0017,"dx":0.0017,"nx":28,"ny":28,"refTime":"2025-12-15T03:00:00:Z","depth":0,"parameterNumber":2,"parameterNumberName":"U-component_of_WINDS"},"data":[0,0,0,0,0,0,0,0,0,0,0,0,0,0,0,0,0,0,0,0,0,0,0,0,0,0,0,0,0,0,0,0,0,0,0,0,0,0,0,0,0,0,0,0,0,0,0,0,0,0,0,0,0,0,0,0,0,0,-3.8483,-3.8485,0,-3.8597,-3.8598,-3.8599,-3.8545,-3.8542,-3.8539,-3.8536,-3.8652,-3.8657,-3.8663,0,0,0,0,0,0,0,0,0,0,0,0,0,-3.822,-3.8225,-3.8483,-3.8485,-3.8486,-3.8597,-3.8598,-3.86,-3.8545,-3.8542,-3.8538,-3.8535,-3.865,-3.8657,-3.8664,0,0,0,0,0,0,0,0,0,0,0,0,0,-3.8334,-3.8226,-3.8483,-3.8472,-3.8472,-3.8596,-3.8598,-3.86,-3.8546,-3.8542,-3.8537,-3.8533,-3.8648,-3.8656,-3.8664,-3.8805,0,0,-3.8691,-3.8695,0,0,0,0,0,0,0,0,-3.8327,-3.8343,-3.8472,-3.8473,-3.8474,-3.8552,-3.8547,-3.8669,-3.8547,-3.8518,-3.8536,-3.8531,-3.8622,-3.8633,-3.8663,-3.8811,-3.8816,-3.8692,-3.8697,-3.8701,-3.8703,0,0,0,0,0,0,0,-3.832,-3.8338,-3.8528,-3.8474,-3.8475,-3.8462,-3.8473,-3.857,-3.8593,-3.852,-3.8517,-3.8531,-3.8621,-3.8655,-3.8666,-3.8817,-3.8692,-3.8699,-3.8705,-3.8708,-3.9085,-3.909,0,0,0,0,0,0,-3.8312,-3.8332,-3.8524,-3.8531,-3.8388,-3.847,-3.8483,-3.8531,-3.8592,-3.8597,-3.8534,-3.8528,-3.8642,-3.8656,-3.867,-3.8836,-3.8701,-3.8709,-3.8714,-3.9081,-3.9086,-3.9092,0,0,0,0,0,0,-3.8307,-3.833,-3.852,-3.8431,-3.8454,-3.8479,-3.8534,-3.8536,-3.8569,-3.8603,-3.8606,-3.8564,-3.864,-3.8657,-3.8772,-3.884,-3.8713,-3.8721,-3.9075,-3.9082,-3.9089,-3.9173,0,0,0,0,0,0,-3.8299,-3.8328,-3.8381,-3.8433,-3.8459,-3.862,-3.8538,-3.8541,-3.8584,-3.8577,-3.8632,-3.8637,-3.8637,-3.8759,-3.878,-3.8849,-3.8727,-3.9069,-3.9078,-3.9087,-3.9164,-3.9182,-3.9197,0,0,0,0,0,-3.829,-3.8401,-3.8384,-3.8408,-3.8526,-3.8624,-3.8639,-3.8638,-3.859,-3.8644,-3.8666,-3.8635,-3.883,-3.8771,-3.8795,-3.8867,-3.9064,-3.9076,-3.9086,-3.9156,-3.9178,-3.9197,0,0,0,0,0,0,-3.8356,-3.8407,-3.8389,-3.852,-3.8568,-3.8615,-3.8682,-3.8662,-3.8724,-3.8715,-3.8711,-3.8724,-3.8842,-3.8867,-3.8801,-3.9007,-3.894,-3.8956,-3.8985,-3.9006,-3.9023,-3.9012,-3.8735,0,0,0,0,0,-3.8386,-3.8461,-3.8502,-3.8613,-3.8638,-3.8657,-3.8699,-3.8695,-3.8744,-3.8764,-3.8794,-3.8843,-3.8916,-3.8963,-3.9032,-3.9169,-3.9179,-3.9231,-3.9248,-3.9261,-3.9274,-3.9347,-3.937,-3.9127,-3.9127,-3.9127,0,0,-3.8448,-3.8485,-3.8533,-3.8627,-3.8664,-3.8741,-3.8674,-3.8759,-3.8816,-3.8777,-3.8886,-3.8911,-3.8966,-3.9092,-3.9149,-3.9116,-3.9344,-3.9275,-3.9286,-3.9291,-3.936,-3.9383,-3.9404,-3.9135,-3.9133,-3.9132,0,0,-3.8599,-3.8637,-3.8732,-3.8771,-3.8828,-3.884,-3.8863,-3.8914,-3.8928,-3.9038,-3.901,-3.9079,-3.9204,-3.9244,-3.9281,-3.9451,-3.9424,-3.9474,-3.9559,-3.9631,-3.965,-3.9667,-3.9725,-3.9746,-3.9487,-3.9488,-3.9488,0,-3.8668,-3.8784,-3.8784,-3.8871,-3.8913,-3.8883,-3.8979,-3.9018,-3.9094,-3.9124,-3.9087,-3.9243,-3.9278,-3.9413,-3.9454,-3.9486,-3.9512,-3.9465,-3.9647,-3.9664,-3.968,-3.9735,-3.9757,-3.9493,-3.9492,-3.9492,-3.9491,0,-3.8865,-3.8947,-3.9017,-3.9092,-3.9143,-3.9234,-3.9248,-3.9299,-3.9292,-3.9308,-3.942,-3.9462,-3.9538,-3.9571,-3.9564,-3.9705,-3.9682,-3.9647,-3.9578,-3.9708,-3.976,-3.9781,-3.9501,-3.9499,-3.9497,-3.9496,0,0,-3.9057,-3.9132,-3.9158,-3.9191,-3.9253,-3.9316,-3.9407,-3.9482,-3.9525,-3.9581,-3.9655,-3.9764,-3.9732,-3.9774,-3.9772,-3.9835,-3.9964,-3.9792,-3.9793,-3.9819,-4.012,-4.0142,-4.0167,-3.9949,-3.9954,-3.9957,-4.0114,0,-3.921,-3.9368,-3.9372,-3.9517,-3.9591,-3.9565,-3.9645,-3.9691,-3.971,-3.9776,-3.9797,-3.9872,-3.9825,-3.985,-3.9912,-3.9935,-4.0024,-3.9925,-4.0017,-4.002,-3.9999,-4.0194,-4.0219,-4.0364,-4.0134,-4.0138,-4.014,0,-3.9408,-3.947,-3.9622,-3.9674,-3.9705,-3.9776,-3.9845,-3.9909,-3.9962,-3.9971,-4.002,-4.0009,-4.0102,-4.0035,-4.0162,-4.0095,-4.0134,-4.0151,-4.0157,-4.0162,-4.0084,-4.0201,-4.0411,-4.0431,-4.0173,-4.017,-4.0168,0,-3.9528,-3.965,-3.9756,-3.9786,-3.985,-3.99,-3.993,-3.9979,-4.0024,-4.0085,-4.0114,-4.0186,-4.0224,-4.028,-4.0289,-4.024,-4.0416,-4.035,-4.0425,-4.0424,-4.0458,-4.0455,-4.0674,-4.0491,-4.0491,-4.0491,-4.049,0,-3.9695,-3.9789,-3.9811,-3.9875,-3.998,-3.9985,-4.0088,-4.0113,-4.0158,-4.0227,-4.0211,-4.0277,-4.0287,-4.0355,-4.0364,-4.0466,-4.0485,-4.0494,-4.0494,-4.0493,-4.0491,-4.0514,-4.0503,-4.0497,-4.0495,-4.0494,-4.0493,0,-3.9844,-3.9863,-3.9977,-4.0029,-4.0045,-4.0119,-4.0164,-4.0226,-4.0245,-4.0333,-4.0354,-4.0383,-4.0462,-4.0478,-4.0573,-4.0578,-4.07,-4.0693,-4.0681,-4.0679,-4.0751,-4.0743,-4.0989,-4.102,-4.0821,-4.0823,-4.0825,0,-3.9947,-4.0019,-4.0079,-4.0125,-4.0156,-4.023,-4.0276,-4.0285,-4.0334,-4.0401,-4.0455,-4.0534,-4.0596,-4.0725,-4.0754,-4.0826,-4.0818,-4.09,-4.0828,-4.0824,-4.0814,-4.0808,-4.0814,-4.0911,-4.0913,-4.0915,-4.0916,0,-4.0127,-4.0134,-4.0201,-4.0272,-4.0327,-4.0384,-4.0437,-4.0476,-4.0492,-4.0548,-4.0629,-4.0678,-4.0775,-4.0852,-4.0925,-4.0955,-4.0938,-4.094,-4.096,-4.0956,-4.0946,-4.0949,-4.0714,-4.0932,-4.0931,-4.093,-4.0929,-4.0928,-4.0254,-4.0315,-4.0368,-4.0443,-4.0485,-4.0536,-4.0597,-4.0624,-4.0692,-4.0771,-4.0773,-4.0862,-4.0915,-4.1011,-4.1046,-4.1116,-4.109,-4.112,-4.1127,-4.1133,-4.1138,-4.0939,-4.113,-4.1129,-4.1129,-4.1128,-4.1128,0,-4.0429,-4.0463,-4.0532,-4.0608,-4.0668,-4.0649,-4.0708,-4.0759,-4.0837,-4.0888,-4.0951,-4.1044,-4.112,-4.1157,-4.1232,-4.128,-4.1274,-4.1299,-4.1293,-4.13,-4.1158,-4.1131,-4.1303,-4.1303,-4.1302,-4.1302,-4.1302,-4.1302,-4.0527,-4.063,-4.0643,-4.0767,-4.08,-4.0886,-4.0921,-4.0968,-4.1009,-4.1114,-4.1177,-4.1201,-4.1247,-4.1325,-4.1394,-4.1403,-4.1429,-4.1457,-4.1462,-4.1328,-4.131,-4.1293,-4.1267,-4.1464,-4.1464,-4.1597,-4.1598,-4.1599]},{"header":{"parameterUnit":"m.s-1","parameterCategory":1,"la1":30.2991,"la2":30.254,"lo1":-89.0895,"lo2":-89.0444,"dy":0.0017,"dx":0.0017,"nx":28,"ny":28,"refTime":"2025-12-15T03:00:00:Z","depth":0,"parameterNumber":3,"parameterNumberName":"V-component_of_WINDS"},"data":[0,0,0,0,0,0,0,0,0,0,0,0,0,0,0,0,0,0,0,0,0,0,0,0,0,0,0,0,0,0,0,0,0,0,0,0,0,0,0,0,0,0,0,0,0,0,0,0,0,0,0,0,0,0,0,0,0,0,0.8308,0.8309,0,0.8384,0.8385,0.8386,0.8379,0.8378,0.8377,0.8376,0.8449,0.8452,0.8455,0,0,0,0,0,0,0,0,0,0,0,0,0,0.8157,0.816,0.8308,0.8309,0.831,0.8384,0.8385,0.8386,0.8379,0.8378,0.8376,0.8375,0.8448,0.8452,0.8456,0,0,0,0,0,0,0,0,0,0,0,0,0,0.8227,0.8161,0.8308,0.8316,0.8317,0.8384,0.8385,0.8386,0.838,0.8378,0.8376,0.8375,0.8447,0.8452,0.8456,0.8518,0,0,0.847,0.8472,0,0,0,0,0,0,0,0,0.8223,0.8232,0.8314,0.8315,0.8317,0.837,0.8359,0.843,0.838,0.8356,0.8376,0.8374,0.8424,0.8431,0.8448,0.8522,0.8525,0.847,0.8473,0.8475,0.8476,0,0,0,0,0,0,0,0.8218,0.8229,0.8338,0.8315,0.8317,0.8315,0.8323,0.8372,0.8399,0.8358,0.8358,0.8367,0.8425,0.8444,0.845,0.8526,0.847,0.8474,0.8477,0.8479,0.8658,0.866,0,0,0,0,0,0,0.8212,0.8225,0.8336,0.834,0.8265,0.8319,0.8328,0.8355,0.8398,0.8403,0.8368,0.8366,0.8437,0.8445,0.8453,0.8531,0.8475,0.8479,0.8482,0.8656,0.8659,0.8661,0,0,0,0,0,0,0.8208,0.8222,0.8333,0.8283,0.8297,0.8324,0.8354,0.8357,0.8377,0.8406,0.841,0.8383,0.8436,0.8446,0.8503,0.8533,0.8481,0.8485,0.8654,0.8657,0.866,0.8687,0,0,0,0,0,0,0.8204,0.822,0.8244,0.8283,0.8299,0.8382,0.8356,0.836,0.8385,0.8383,0.8421,0.8426,0.8436,0.8497,0.8508,0.8539,0.8489,0.8651,0.8655,0.8659,0.8683,0.869,0.8696,0,0,0,0,0,0.8199,0.8247,0.8246,0.8259,0.833,0.8384,0.8393,0.8405,0.8387,0.8412,0.8431,0.8424,0.8528,0.8502,0.8515,0.8548,0.8649,0.8654,0.8659,0.868,0.8689,0.8696,0,0,0,0,0,0,0.8209,0.8252,0.8251,0.8314,0.8346,0.8383,0.8414,0.8413,0.8449,0.8446,0.8457,0.8466,0.8524,0.8541,0.8512,0.8612,0.8587,0.8594,0.8599,0.8607,0.8614,0.8608,0.8493,0,0,0,0,0,0.8219,0.826,0.8295,0.8347,0.8363,0.8386,0.841,0.8417,0.8449,0.8462,0.8485,0.8517,0.8557,0.8583,0.8621,0.8686,0.8695,0.8715,0.8721,0.8727,0.8733,0.8771,0.8781,0.8676,0.8676,0.8676,0,0,0.8239,0.8268,0.8292,0.835,0.8375,0.8418,0.8397,0.8442,0.8474,0.8468,0.8525,0.8543,0.8579,0.8642,0.867,0.8658,0.8764,0.8732,0.8736,0.874,0.8777,0.8787,0.8796,0.8679,0.8679,0.8678,0,0,0.8297,0.8323,0.837,0.8397,0.8437,0.8453,0.8464,0.8503,0.8516,0.8573,0.8571,0.8608,0.8676,0.8703,0.8725,0.8799,0.8795,0.8811,0.8845,0.8882,0.8891,0.8898,0.8926,0.8936,0.8817,0.8817,0.8817,0,0.8317,0.8381,0.8394,0.8441,0.8468,0.8467,0.8516,0.8541,0.8591,0.8609,0.8595,0.8683,0.8707,0.8777,0.8795,0.8813,0.8827,0.8806,0.8888,0.8896,0.8903,0.893,0.894,0.8819,0.8818,0.8818,0.8818,0,0.8405,0.845,0.8483,0.8534,0.8564,0.8611,0.8632,0.8661,0.8666,0.8683,0.8742,0.8772,0.8817,0.8834,0.8838,0.8906,0.8898,0.8886,0.8861,0.8915,0.8941,0.8951,0.8821,0.8821,0.882,0.882,0,0,0.8469,0.853,0.8542,0.8567,0.8613,0.8647,0.8696,0.8742,0.8768,0.8803,0.8844,0.8904,0.8895,0.892,0.8927,0.896,0.9019,0.8945,0.8946,0.8959,0.9099,0.9108,0.9119,0.9017,0.9019,0.9021,0.9096,0,0.8534,0.8621,0.8636,0.8712,0.8755,0.8757,0.88,0.8832,0.8851,0.8889,0.8909,0.8952,0.8935,0.8951,0.8984,0.9005,0.9048,0.9,0.9056,0.9058,0.9048,0.9132,0.9142,0.9211,0.9106,0.9108,0.9109,0,0.862,0.8661,0.8742,0.8785,0.8804,0.8842,0.8888,0.8925,0.8962,0.8973,0.9004,0.9009,0.9059,0.9032,0.9103,0.9071,0.9095,0.9109,0.9112,0.9118,0.9087,0.9142,0.9233,0.9245,0.9124,0.9123,0.9122,0,0.8662,0.8736,0.8796,0.8816,0.8867,0.8895,0.8917,0.8954,0.8982,0.9022,0.9041,0.9085,0.911,0.9144,0.9161,0.9139,0.9232,0.9205,0.9243,0.9243,0.9262,0.9261,0.936,0.9276,0.9276,0.9276,0.9275,0,0.8733,0.8783,0.8816,0.8852,0.8909,0.8926,0.8981,0.9003,0.9036,0.9077,0.9081,0.9119,0.9139,0.918,0.9193,0.9251,0.9262,0.9273,0.9276,0.9273,0.9272,0.9289,0.9285,0.9278,0.9278,0.9277,0.9277,0,0.8789,0.8813,0.8878,0.8922,0.8935,0.8975,0.9013,0.9049,0.9068,0.912,0.9133,0.9163,0.9212,0.9233,0.9292,0.9301,0.9369,0.9367,0.9356,0.9358,0.9395,0.9392,0.951,0.9527,0.943,0.9431,0.9432,0,0.8833,0.8872,0.8922,0.8951,0.8975,0.9021,0.9051,0.907,0.9101,0.915,0.918,0.923,0.9271,0.935,0.9376,0.9422,0.9423,0.9461,0.943,0.9427,0.9426,0.9424,0.9429,0.9467,0.9468,0.9469,0.9469,0,0.891,0.8921,0.8964,0.9014,0.905,0.9089,0.9127,0.915,0.9175,0.921,0.9262,0.9294,0.9357,0.9407,0.9455,0.9478,0.9479,0.9479,0.9491,0.9489,0.9482,0.9488,0.9374,0.9476,0.9476,0.9475,0.9475,0.9474,0.8962,0.8998,0.9041,0.909,0.9122,0.9158,0.9195,0.922,0.9264,0.9318,0.9327,0.9383,0.9422,0.9488,0.9513,0.9557,0.9548,0.9564,0.9568,0.9572,0.9576,0.9475,0.9566,0.9566,0.9566,0.9566,0.9565,0,0.9041,0.9069,0.9114,0.9169,0.9209,0.9208,0.9251,0.9284,0.9334,0.9371,0.9413,0.9474,0.9523,0.9555,0.9605,0.9635,0.9636,0.9647,0.9646,0.9651,0.958,0.9566,0.9645,0.9645,0.9645,0.9645,0.9645,0.9645,0.9086,0.9148,0.9165,0.9243,0.9271,0.9327,0.9352,0.9387,0.9417,0.9486,0.9528,0.9549,0.9585,0.9639,0.9684,0.9692,0.9711,0.9723,0.9731,0.9664,0.9656,0.9648,0.9635,0.9727,0.9727,0.9798,0.9799,0.9799]}]]